IDALKE38 Weather Reports


time (UTC)temp
F
wind
direction
speed
knots
gust
knots
rain 1hr
in
rain 24hr
in
rain mn
in
humidity
%
barometer
mb
20260505093004 58 186 1.7 8.7 0.00 0.04 0.00 66 999.4
20260505091501 59 201 3.5 11.3 0.00 0.04 0.00 66 999.6
20260505090058 59 225 5.2 12.2 0.00 0.04 0.00 65 999.6
20260505084557 59 214 7.0 18.2 0.00 0.05 0.00 63 999.6
20260505083056 58 198 3.5 6.1 0.00 0.05 0.00 62 999.9
20260505081555 58 201 3.5 8.7 0.00 0.05 0.00 62 999.9
20260505080103 58 210 5.2 9.6 0.00 0.05 0.00 62 1000.0
20260505074551 58 200 1.7 7.0 0.00 0.05 0.00 62 999.8
20260505073054 58 215 2.6 7.8 0.00 0.05 0.00 62 999.8
20260505071549 58 190 2.6 6.1 0.00 0.05 0.00 62 999.6
20260505070052 58 213 1.7 5.2 0.00 0.05 0.00 60 999.6
20260505064545 59 195 2.6 7.0 0.00 0.05 0.00 60 999.8
20260505063057 59 165 0.9 4.3 0.00 0.05 0.00 61 1000.0
20260505061543 58 192 1.7 6.1 0.00 0.05 0.00 62 1000.2
20260505060038 58 193 3.5 6.1 0.00 0.05 0.00 62 1000.5
20260505054539 57 202 1.7 5.2 0.00 0.05 0.00 63 1000.5
20260505053035 57 179 0.9 3.5 0.00 0.05 0.00 64 1000.5
20260505051533 57 194 0.9 3.5 0.00 0.05 0.00 64 1000.8
20260505041540 57 208 0.0 3.5 0.00 0.05 0.00 64 1001.3
20260505040036 58 211 0.9 2.6 0.00 0.05 0.00 63 1001.3
20260505034524 58 203 0.9 3.5 0.00 0.05 0.00 63 1001.4
20260505033022 59 162 0.9 4.3 0.00 0.05 0.00 63 1001.5
20260505031534 59 211 0.9 6.1 0.00 0.05 0.00 63 1001.6
20260505030122 59 196 0.9 3.5 0.00 0.05 0.00 63 1001.5
20260505024520 59 188 0.0 2.6 0.00 0.05 0.00 63 1001.7
20260505023019 59 205 0.0 1.7 0.00 0.05 0.00 63 1001.8
20260505021519 59 206 0.0 0.9 0.00 0.05 0.00 62 1002.0
20260505020018 60 206 0.0 1.7 0.00 0.05 0.00 61 1002.2
20260505014520 62 210 0.9 4.3 0.00 0.05 0.00 59 1002.2
20260505013017 62 229 2.6 7.0 0.00 0.05 0.00 58 1002.2
20260505011519 63 213 4.3 7.8 0.00 0.05 0.00 58 1002.2
20260505010021 62 224 1.7 4.3 0.00 0.05 0.00 58 1001.9
20260505004515 63 213 3.5 7.8 0.00 0.05 0.00 56 1001.8
20260505003014 63 198 3.5 7.8 0.00 0.05 0.00 57 1001.6
20260505001515 63 206 2.6 7.8 0.00 0.05 0.00 56 1001.7
20260505000013 64 234 3.5 8.7 0.00 0.05 0.00 56 1001.7
20260504234513 64 214 4.3 8.7 0.00 0.05 0.00 56 1001.6
20260504233012 64 234 5.2 9.6 0.00 0.05 0.00 55 1001.6
20260504231511 64 224 2.6 7.0 0.00 0.05 0.00 56 1001.5
20260504230012 64 212 4.3 8.7 0.00 0.05 0.00 55 1001.4
20260504224512 64 232 7.8 13.9 0.00 0.05 0.00 55 1001.7
20260504223013 64 205 7.0 14.8 0.00 0.05 0.00 54 1001.9
20260504221506 64 233 7.0 13.0 0.00 0.05 0.00 53 1002.0
20260504220011 64 205 7.8 15.6 0.00 0.05 0.00 53 1001.8
20260504214504 65 238 7.0 16.5 0.00 0.05 0.00 53 1001.9
20260504213010 65 225 6.1 14.8 0.00 0.05 0.00 53 1001.7
20260504211501 65 217 7.8 12.2 0.00 0.05 0.00 53 1001.8
20260504210101 66 206 7.8 13.9 0.00 0.05 0.00 54 1001.8
20260504204558 66 232 7.8 18.2 0.00 0.05 0.00 53 1002.0
20260504203109 65 242 8.7 16.5 0.00 0.05 0.00 54 1001.9
20260504201558 65 248 9.6 20.9 0.00 0.05 0.00 55 1002.1
20260504200059 65 250 7.0 19.1 0.00 0.05 0.00 55 1002.1
20260504194550 63 225 7.0 12.2 0.00 0.05 0.00 58 1002.2
20260504193050 63 257 3.5 13.9 0.00 0.05 0.00 59 1002.5
20260504191555 63 249 7.8 15.6 0.00 0.05 0.00 59 1002.6
20260504190046 61 229 5.2 10.4 0.00 0.05 0.00 63 1002.8
20260504184539 60 244 5.2 9.6 0.00 0.05 0.00 65 1003.0
20260504183037 59 204 3.5 7.0 0.00 0.05 0.00 67 1003.4
20260504181543 59 232 4.3 12.2 0.00 0.05 0.00 66 1003.5
20260504180034 59 222 6.1 9.6 0.00 0.05 0.00 67 1003.5
20260504174530 58 244 3.5 9.6 0.00 0.05 0.00 68 1003.6
20260504173027 59 225 6.1 13.9 0.00 0.05 0.00 68 1003.7
20260504171524 57 237 7.0 13.0 0.00 0.05 0.00 70 1003.9
20260504170120 57 253 5.2 11.3 0.00 0.05 0.00 73 1004.0
20260504150107 52 234 7.0 13.0 0.00 0.05 0.00 83 1004.6